Regional Weather Roundup
Issued by NWS

Home | Current Version | Previous Version | Graphics & Text | Print | Product List | Glossary On
Versions: 1 2 3 4 5 6 7 8 9 10 11 12 13 14 15 16 17 18 19 20 21 22 23 24 25 26 27
000
ASUS45 KSLC 201110
RWRUT

UTAH REGIONAL WEATHER ROUNDUP
NATIONAL WEATHER SERVICE SALT LAKE CITY UT
500 AM MDT SUN AUG 20 2017

UTZ001>011-023>025-201200-

NORTHERN UTAH

CITY           SKY/WX    TMP DP  RH WIND       PRES   REMARKS
BRIGHAM CITY   PTCLDY    63  43  48 W3        30.01S
HILL AFB       CLEAR     67  36  32 E15       30.03S
LOGAN          PTCLDY    58  43  57 W3        30.04S
OGDEN          CLEAR     67  38  34 SE6       30.00S
SALT LAKE CITY PTCLDY    72  43  35 SE7       29.99S
TOOELE VALLEY  CLEAR     64  37  36 S7        30.01R
WENDOVER       PTCLDY    72  32  23 W3        30.00F
HEBER CITY     PTCLDY    52  43  71 CALM      30.12S
WEST JORDAN    CLEAR     71  47  42 SW9       30.03S

$$

UTZ011>015-024>027-201200-

CENTRAL/NORTHEAST UTAH

CITY           SKY/WX    TMP DP  RH WIND       PRES   REMARKS
PROVO AIRPORT  PTCLDY    68  47  46 VRB6      30.04R
MOAB/CANYONLAN PTCLDY    67  37  33 W3        30.01S
DELTA          CLEAR     61  34  36 S10       30.05S
PRICE          PTCLDY    57  38  48 NE6       30.14S
ROOSEVELT      CLEAR     55  45  67 W6        30.12S
VERNAL         CLOUDY    58  41  53 CALM      30.11R

$$

UTZ013>016-019>022-027-201200-

SOUTHERN UTAH

CITY           SKY/WX    TMP DP  RH WIND       PRES   REMARKS
BRYCE CANYON   HVY RAIN  62  42  47 S9G45     30.30S
CEDAR CITY     PTCLDY    55  39  54 E3        30.14S
MILFORD        CLEAR     65  34  31 S9        30.09R
ST GEORGE      MOSUNNY   74  42  31 CALM      29.95S
HANKSVILLE     CLEAR     61  32  33 CALM      30.05S
BLANDING       PTCLDY    65  34  31 N9        30.18S

$$

REGIONAL REPORTS     COLORADO/ARIZONA

CITY           SKY/WX    TMP DP  RH WIND       PRES   REMARKS
CRAIG, CO      CLEAR     45  35  68 CALM      30.19S
GRAND JUNCTION CLEAR     66  38  35 E7        30.06F
RIFLE, CO      CLEAR     54  37  52 CALM      30.16S
MONTROSE, CO   CLOUDY    57  40  52 S8        30.16F
CORTEZ, CO     CLEAR     59  42  53 CALM      30.14S
COLORADO CITY    N/A     57  45  62 NE6       30.12F
PAGE, AZ       PTCLDY    75  39  27 CALM      30.01F
GRAND CANYON   CLEAR     47  38  71 CALM      30.24F
KINGMAN, AZ    CLEAR     73  46  38 SE8       30.00R
FLAGSTAFF, AZ  MOCLDY    58  45  62 CALM      30.27S

$$

REGIONAL REPORTS    NEVADA/IDAHO/WYOMING

CITY           SKY/WX    TMP DP  RH WIND       PRES   REMARKS
LAS VEGAS, NV  PTCLDY    85  45  24 S3        29.86S
ELY, NY        CLEAR     50  32  50 S15       30.16S
ELKO, NV       PTCLDY    53  33  46 S3        30.08S
POCATELLO, ID  CLOUDY    65  32  29 SW10      30.07R
BURLEY, ID     CLEAR     54  39  57 SW6       30.04S
FORT BRIDGER,    N/A     60  33  36 W10       30.24S
EVANSTON, WY   CLOUDY    58  36  43 SE6       30.22S
ROCK SPRINGS,  CLOUDY    58  34  40 S7        30.19S

$$




USA.gov is the U.S. government's official web portal to all federal, state and local government web resources and services.